owner,sensor,date,latitude,longitude,vertical_datum,wind_speed,wind_to_direction,wind_speed_of_gust,qcFlag 
COMPS,ioos:station:USF.COMPS:C10:1,2017-03-01T00:05:00Z,27.1690,-82.9260,3.0,1.45,250.33,2.2,'1111122,1111122,1111122' 
COMPS,ioos:station:USF.COMPS:C10:1,2017-03-01T00:35:00Z,27.1690,-82.9260,3.0,2.06,251.23,2.35,'1111122,1111122,1111122' 
COMPS,ioos:station:USF.COMPS:C10:1,2017-03-01T01:05:00Z,27.1690,-82.9260,3.0,2.92,15.81,6.28,'1111122,1111122,1111122' 
COMPS,ioos:station:USF.COMPS:C10:1,2017-03-01T01:35:00Z,27.1690,-82.9260,3.0,1.33,64.82,4.58,'1111122,1111122,1111122' 
COMPS,ioos:station:USF.COMPS:C10:1,2017-03-01T02:05:00Z,27.1690,-82.9260,3.0,1.77,142.72,2.44,'1111122,1111122,1111122' 
COMPS,ioos:station:USF.COMPS:C10:1,2017-03-01T02:35:00Z,27.1690,-82.9260,3.0,1.79,134.01,2.11,'1111122,1111122,1111122' 
COMPS,ioos:station:USF.COMPS:C10:1,2017-03-01T03:05:00Z,27.1690,-82.9260,3.0,1.63,81.1,1.9,'1111122,1111122,1111122' 
COMPS,ioos:station:USF.COMPS:C10:1,2017-03-01T03:35:00Z,27.1690,-82.9260,3.0,1.52,85.06,1.84,'1111122,1111122,1111122' 
COMPS,ioos:station:USF.COMPS:C10:1,2017-03-01T04:05:00Z,27.1690,-82.9260,3.0,1.96,82.42,2.52,'1111122,1111122,1111122' 
COMPS,ioos:station:USF.COMPS:C10:1,2017-03-01T04:35:00Z,27.1690,-82.9260,3.0,1.88,77.47,2.18,'1111122,1111122,1111122' 
COMPS,ioos:station:USF.COMPS:C10:1,2017-03-01T05:05:00Z,27.1690,-82.9260,3.0,2.05,94.15,2.52,'1111122,1111122,1111122' 
COMPS,ioos:station:USF.COMPS:C10:1,2017-03-01T05:35:00Z,27.1690,-82.9260,3.0,2.45,111.64,2.9,'1111122,1111122,1111122' 
COMPS,ioos:station:USF.COMPS:C10:1,2017-03-01T06:05:00Z,27.1690,-82.9260,3.0,3.0,125.06,3.61,'1111122,1111122,1111122' 
COMPS,ioos:station:USF.COMPS:C10:1,2017-03-01T06:35:00Z,27.1690,-82.9260,3.0,2.77,124.5,3.29,'1111122,1111122,1111122' 
COMPS,ioos:station:USF.COMPS:C10:1,2017-03-01T09:05:00Z,27.1690,-82.9260,3.0,2.55,115.75,3.08,'1111122,1111122,1111122' 
COMPS,ioos:station:USF.COMPS:C10:1,2017-03-01T09:35:00Z,27.1690,-82.9260,3.0,2.12,120.52,2.56,'1111122,1111122,1111122' 
COMPS,ioos:station:USF.COMPS:C10:1,2017-03-01T10:05:00Z,27.1690,-82.9260,3.0,2.91,117.65,3.38,'1111122,1111122,1111122' 
COMPS,ioos:station:USF.COMPS:C10:1,2017-03-01T10:35:00Z,27.1690,-82.9260,3.0,3.01,116.19,3.52,'1111122,1111122,1111122' 
COMPS,ioos:station:USF.COMPS:C10:1,2017-03-01T11:05:00Z,27.1690,-82.9260,3.0,3.22,108.95,3.93,'1111122,1111122,1111122' 
COMPS,ioos:station:USF.COMPS:C10:1,2017-03-01T11:35:00Z,27.1690,-82.9260,3.0,3.41,111.37,3.99,'1111122,1111122,1111122' 
COMPS,ioos:station:USF.COMPS:C10:1,2017-03-01T12:05:00Z,27.1690,-82.9260,3.0,3.07,113.16,3.54,'1111122,1111122,1111122' 
COMPS,ioos:station:USF.COMPS:C10:1,2017-03-01T12:35:00Z,27.1690,-82.9260,3.0,3.26,114.38,4.06,'1111122,1111122,1111122' 
COMPS,ioos:station:USF.COMPS:C10:1,2017-03-01T13:05:00Z,27.1690,-82.9260,3.0,3.34,102.21,4.29,'1111122,1111122,1111122' 
COMPS,ioos:station:USF.COMPS:C10:1,2017-03-01T13:35:00Z,27.1690,-82.9260,3.0,3.82,89.62,4.61,'1111122,1111122,1111122' 
COMPS,ioos:station:USF.COMPS:C10:1,2017-03-01T16:05:00Z,27.1690,-82.9260,3.0,4.18,112.95,4.96,'1111122,1111122,1111122' 
COMPS,ioos:station:USF.COMPS:C10:1,2017-03-01T16:35:00Z,27.1690,-82.9260,3.0,3.44,114.13,4.26,'1111122,1111122,1111122' 
COMPS,ioos:station:USF.COMPS:C10:1,2017-03-01T17:05:00Z,27.1690,-82.9260,3.0,2.37,118.07,3.08,'1111122,1111122,1111122' 
COMPS,ioos:station:USF.COMPS:C10:1,2017-03-01T17:35:00Z,27.1690,-82.9260,3.0,1.29,116.52,1.81,'1111122,1111122,1111122' 
COMPS,ioos:station:USF.COMPS:C10:1,2017-03-01T18:05:00Z,27.1690,-82.9260,3.0,1.88,118.12,2.46,'1111122,1111122,1111122' 
COMPS,ioos:station:USF.COMPS:C10:1,2017-03-01T18:35:00Z,27.1690,-82.9260,3.0,4.12,149.49,4.98,'1111122,1111122,1111122' 
COMPS,ioos:station:USF.COMPS:C10:1,2017-03-01T19:05:00Z,27.1690,-82.9260,3.0,4.15,160.32,5.16,'1111122,1111122,1111122' 
COMPS,ioos:station:USF.COMPS:C10:1,2017-03-01T19:35:00Z,27.1690,-82.9260,3.0,3.02,169.43,3.81,'1111122,1111122,1111122' 
COMPS,ioos:station:USF.COMPS:C10:1,2017-03-01T20:05:00Z,27.1690,-82.9260,3.0,2.43,173.22,3.23,'1111122,1111122,1111122' 
COMPS,ioos:station:USF.COMPS:C10:1,2017-03-01T20:35:00Z,27.1690,-82.9260,3.0,1.69,189.14,2.1,'1111122,1111122,1111122' 
COMPS,ioos:station:USF.COMPS:C10:1,2017-03-01T21:05:00Z,27.1690,-82.9260,3.0,1.63,219.17,1.91,'1111122,1111122,1111122' 
COMPS,ioos:station:USF.COMPS:C10:1,2017-03-01T21:35:00Z,27.1690,-82.9260,3.0,1.9,223.25,2.38,'1111122,1111122,1111122' 
COMPS,ioos:station:USF.COMPS:C10:1,2017-03-01T22:05:00Z,27.1690,-82.9260,3.0,1.68,240.16,2.57,'1111122,1111122,1111122' 
COMPS,ioos:station:USF.COMPS:C10:1,2017-03-01T22:35:00Z,27.1690,-82.9260,3.0,1.72,242.08,2.03,'1111122,1111122,1111122' 
COMPS,ioos:station:USF.COMPS:C10:1,2017-03-01T23:05:00Z,27.1690,-82.9260,3.0,2.19,246.25,2.56,'1111122,1111122,1111122' 
COMPS,ioos:station:USF.COMPS:C10:1,2017-03-01T23:35:00Z,27.1690,-82.9260,3.0,1.86,259.42,2.32,'1111122,1111122,1111122' 
COMPS,ioos:station:USF.COMPS:C10:1,2017-03-02T00:05:00Z,27.1690,-82.9260,3.0,1.51,215.56,1.81,'1111122,1111122,1111122' 
COMPS,ioos:station:USF.COMPS:C10:1,2017-03-02T00:35:00Z,27.1690,-82.9260,3.0,1.09,210.73,1.64,'1111122,1111122,1111122' 
COMPS,ioos:station:USF.COMPS:C10:1,2017-03-02T01:05:00Z,27.1690,-82.9260,3.0,1.68,195.13,1.97,'1111122,1111122,1111122' 
COMPS,ioos:station:USF.COMPS:C10:1,2017-03-02T01:35:00Z,27.1690,-82.9260,3.0,1.28,202.02,1.66,'1111122,1111122,1111122' 
COMPS,ioos:station:USF.COMPS:C10:1,2017-03-02T02:05:00Z,27.1690,-82.9260,3.0,0.52,253.06,0.95,'1111122,1111122,1111122' 
COMPS,ioos:station:USF.COMPS:C10:1,2017-03-02T02:35:00Z,27.1690,-82.9260,3.0,0.39,271.16,0.79,'1111122,1111122,1111122' 
COMPS,ioos:station:USF.COMPS:C10:1,2017-03-02T03:05:00Z,27.1690,-82.9260,3.0,1.54,176.33,2.17,'1111122,1111122,1111122' 
COMPS,ioos:station:USF.COMPS:C10:1,2017-03-02T03:35:00Z,27.1690,-82.9260,3.0,1.87,187.35,2.51,'1111122,1111122,1111122' 
COMPS,ioos:station:USF.COMPS:C10:1,2017-03-02T04:05:00Z,27.1690,-82.9260,3.0,1.52,270.68,1.86,'1111122,1111122,1111122' 
COMPS,ioos:station:USF.COMPS:C10:1,2017-03-02T04:35:00Z,27.1690,-82.9260,3.0,0.82,259.82,1.56,'1111122,1111122,1111122' 
COMPS,ioos:station:USF.COMPS:C10:1,2017-03-02T05:05:00Z,27.1690,-82.9260,3.0,0.58,264.79,0.86,'1111122,1111122,1111122' 
COMPS,ioos:station:USF.COMPS:C10:1,2017-03-02T05:35:00Z,27.1690,-82.9260,3.0,1.51,267.83,1.85,'1111122,1111122,1111122' 
COMPS,ioos:station:USF.COMPS:C10:1,2017-03-02T06:05:00Z,27.1690,-82.9260,3.0,1.25,225.83,1.52,'1111122,1111122,1111122' 
COMPS,ioos:station:USF.COMPS:C10:1,2017-03-02T06:35:00Z,27.1690,-82.9260,3.0,1.26,269.63,1.57,'1111122,1111122,1111122' 
COMPS,ioos:station:USF.COMPS:C10:1,2017-03-02T07:05:00Z,27.1690,-82.9260,3.0,0.73,263.25,1.15,'1111122,1111122,1111122' 
COMPS,ioos:station:USF.COMPS:C10:1,2017-03-02T07:35:00Z,27.1690,-82.9260,3.0,0.73,291.88,1.13,'1111122,1111122,1111122' 
COMPS,ioos:station:USF.COMPS:C10:1,2017-03-02T08:05:00Z,27.1690,-82.9260,3.0,0.36,312.43,0.79,'1111122,1111122,1111122' 
COMPS,ioos:station:USF.COMPS:C10:1,2017-03-02T08:35:00Z,27.1690,-82.9260,3.0,0.31,231.06,0.53,'1111122,1111122,1111122' 
COMPS,ioos:station:USF.COMPS:C10:1,2017-03-02T09:05:00Z,27.1690,-82.9260,3.0,0.48,220.23,0.82,'1111122,1111122,1111122' 
COMPS,ioos:station:USF.COMPS:C10:1,2017-03-02T09:35:00Z,27.1690,-82.9260,3.0,1.21,287.92,1.53,'1111122,1111122,1111122' 
COMPS,ioos:station:USF.COMPS:C10:1,2017-03-02T10:05:00Z,27.1690,-82.9260,3.0,1.06,230.48,1.54,'1111122,1111122,1111122' 
COMPS,ioos:station:USF.COMPS:C10:1,2017-03-02T10:35:00Z,27.1690,-82.9260,3.0,1.06,255.97,2.36,'1111122,1111122,1111122' 
COMPS,ioos:station:USF.COMPS:C10:1,2017-03-02T11:05:00Z,27.1690,-82.9260,3.0,2.41,310.92,3.37,'1111122,1111122,1111122' 
COMPS,ioos:station:USF.COMPS:C10:1,2017-03-02T11:35:00Z,27.1690,-82.9260,3.0,1.21,256.34,1.92,'1111122,1111122,1111122' 
COMPS,ioos:station:USF.COMPS:C10:1,2017-03-02T12:05:00Z,27.1690,-82.9260,3.0,1.82,189.1,2.49,'1111122,1111122,1111122' 
COMPS,ioos:station:USF.COMPS:C10:1,2017-03-02T12:35:00Z,27.1690,-82.9260,3.0,2.93,165.89,3.54,'1111122,1111122,1111122' 
COMPS,ioos:station:USF.COMPS:C10:1,2017-03-02T13:05:00Z,27.1690,-82.9260,3.0,2.57,173.91,3.34,'1111122,1111122,1111122' 
COMPS,ioos:station:USF.COMPS:C10:1,2017-03-02T13:35:00Z,27.1690,-82.9260,3.0,1.47,196.04,2.06,'1111122,1111122,1111122' 
COMPS,ioos:station:USF.COMPS:C10:1,2017-03-02T14:05:00Z,27.1690,-82.9260,3.0,1.06,252.12,1.5,'1111122,1111122,1111122' 
COMPS,ioos:station:USF.COMPS:C10:1,2017-03-02T14:35:00Z,27.1690,-82.9260,3.0,1.55,285.74,2.11,'1111122,1111122,1111122' 
COMPS,ioos:station:USF.COMPS:C10:1,2017-03-02T15:05:00Z,27.1690,-82.9260,3.0,2.09,310.48,2.61,'1111122,1111122,1111122' 
COMPS,ioos:station:USF.COMPS:C10:1,2017-03-02T15:35:00Z,27.1690,-82.9260,3.0,0.59,208.27,1.27,'1111122,1111122,1111122' 
COMPS,ioos:station:USF.COMPS:C10:1,2017-03-02T16:05:00Z,27.1690,-82.9260,3.0,1.91,281.32,2.54,'1111122,1111122,1111122' 
COMPS,ioos:station:USF.COMPS:C10:1,2017-03-02T16:35:00Z,27.1690,-82.9260,3.0,1.24,232.98,1.75,'1111122,1111122,1111122' 
COMPS,ioos:station:USF.COMPS:C10:1,2017-03-02T17:05:00Z,27.1690,-82.9260,3.0,1.52,270.36,2.15,'1111122,1111122,1111122' 
COMPS,ioos:station:USF.COMPS:C10:1,2017-03-02T17:35:00Z,27.1690,-82.9260,3.0,1.41,268.56,1.95,'1111122,1111122,1111122' 
COMPS,ioos:station:USF.COMPS:C10:1,2017-03-02T18:05:00Z,27.1690,-82.9260,3.0,3.03,301.43,3.97,'1111122,1111122,1111122' 
COMPS,ioos:station:USF.COMPS:C10:1,2017-03-02T18:35:00Z,27.1690,-82.9260,3.0,3.47,310.02,4.38,'1111122,1111122,1111122' 
COMPS,ioos:station:USF.COMPS:C10:1,2017-03-02T19:05:00Z,27.1690,-82.9260,3.0,2.34,274.57,2.91,'1111122,1111122,1111122' 
COMPS,ioos:station:USF.COMPS:C10:1,2017-03-02T19:35:00Z,27.1690,-82.9260,3.0,2.66,272.11,3.19,'1111122,1111122,1111122' 
COMPS,ioos:station:USF.COMPS:C10:1,2017-03-02T20:05:00Z,27.1690,-82.9260,3.0,2.73,275.43,3.28,'1111122,1111122,1111122' 
COMPS,ioos:station:USF.COMPS:C10:1,2017-03-02T20:35:00Z,27.1690,-82.9260,3.0,2.99,294.15,3.56,'1111122,1111122,1111122' 
COMPS,ioos:station:USF.COMPS:C10:1,2017-03-02T21:05:00Z,27.1690,-82.9260,3.0,2.92,297.48,3.64,'1111122,1111122,1111122' 
COMPS,ioos:station:USF.COMPS:C10:1,2017-03-02T21:35:00Z,27.1690,-82.9260,3.0,2.63,293.27,3.31,'1111122,1111122,1111122' 
COMPS,ioos:station:USF.COMPS:C10:1,2017-03-02T22:05:00Z,27.1690,-82.9260,3.0,2.41,291.77,3.14,'1111122,1111122,1111122' 
COMPS,ioos:station:USF.COMPS:C10:1,2017-03-02T22:35:00Z,27.1690,-82.9260,3.0,2.7,299.09,3.19,'1111122,1111122,1111122' 
COMPS,ioos:station:USF.COMPS:C10:1,2017-03-02T23:05:00Z,27.1690,-82.9260,3.0,1.75,295.96,2.21,'1111122,1111122,1111122' 
COMPS,ioos:station:USF.COMPS:C10:1,2017-03-02T23:35:00Z,27.1690,-82.9260,3.0,7.97,351.79,9.25,'1111122,1111122,1111122' 
COMPS,ioos:station:USF.COMPS:C10:1,2017-03-03T00:05:00Z,27.1690,-82.9260,3.0,8.31,2.26,9.82,'1111122,1111122,1111122' 
COMPS,ioos:station:USF.COMPS:C10:1,2017-03-03T00:35:00Z,27.1690,-82.9260,3.0,8.78,1.1,10.35,'1111122,1111122,1111122' 
COMPS,ioos:station:USF.COMPS:C10:1,2017-03-03T01:05:00Z,27.1690,-82.9260,3.0,9.07,3.08,10.72,'1111122,1111122,1111122' 
COMPS,ioos:station:USF.COMPS:C10:1,2017-03-03T01:35:00Z,27.1690,-82.9260,3.0,7.99,13.0,9.49,'1111122,1111122,1111122' 
COMPS,ioos:station:USF.COMPS:C10:1,2017-03-03T02:05:00Z,27.1690,-82.9260,3.0,7.58,10.85,9.15,'1111122,1111122,1111122' 
COMPS,ioos:station:USF.COMPS:C10:1,2017-03-03T02:35:00Z,27.1690,-82.9260,3.0,7.0,10.64,8.74,'1111122,1111122,1111122' 
COMPS,ioos:station:USF.COMPS:C10:1,2017-03-03T03:05:00Z,27.1690,-82.9260,3.0,7.56,359.74,9.32,'1111122,1111122,1111122' 
COMPS,ioos:station:USF.COMPS:C10:1,2017-03-03T03:35:00Z,27.1690,-82.9260,3.0,8.34,355.86,10.81,'1111122,1111122,1111122' 
COMPS,ioos:station:USF.COMPS:C10:1,2017-03-03T04:05:00Z,27.1690,-82.9260,3.0,8.03,358.25,9.71,'1111122,1111122,1111122' 
COMPS,ioos:station:USF.COMPS:C10:1,2017-03-03T04:35:00Z,27.1690,-82.9260,3.0,7.16,7.57,8.47,'1111122,1111122,1111122' 
COMPS,ioos:station:USF.COMPS:C10:1,2017-03-03T05:05:00Z,27.1690,-82.9260,3.0,7.95,26.21,9.55,'1111122,1111122,1111122' 
COMPS,ioos:station:USF.COMPS:C10:1,2017-03-03T05:35:00Z,27.1690,-82.9260,3.0,7.11,28.97,9.17,'1111122,1111122,1111122' 
COMPS,ioos:station:USF.COMPS:C10:1,2017-03-03T06:05:00Z,27.1690,-82.9260,3.0,9.32,29.2,11.19,'1111122,1111122,1111122' 
COMPS,ioos:station:USF.COMPS:C10:1,2017-03-03T06:35:00Z,27.1690,-82.9260,3.0,9.49,34.14,11.43,'1111122,1111122,1111122' 
COMPS,ioos:station:USF.COMPS:C10:1,2017-03-03T14:05:00Z,27.1690,-82.9260,3.0,10.75,27.3,12.81,'1111122,1111122,1111122' 
COMPS,ioos:station:USF.COMPS:C10:1,2017-03-03T14:35:00Z,27.1690,-82.9260,3.0,11.87,37.76,14.24,'1111122,1111122,1111122' 
COMPS,ioos:station:USF.COMPS:C10:1,2017-03-03T15:05:00Z,27.1690,-82.9260,3.0,10.82,37.4,13.16,'1111122,1111122,1111122' 
COMPS,ioos:station:USF.COMPS:C10:1,2017-03-03T15:35:00Z,27.1690,-82.9260,3.0,10.84,34.95,13.23,'1111122,1111122,1111122' 
COMPS,ioos:station:USF.COMPS:C10:1,2017-03-03T16:05:00Z,27.1690,-82.9260,3.0,10.06,37.21,12.69,'1111122,1111122,1111122' 
COMPS,ioos:station:USF.COMPS:C10:1,2017-03-03T16:35:00Z,27.1690,-82.9260,3.0,10.38,35.27,12.41,'1111122,1111122,1111122' 
COMPS,ioos:station:USF.COMPS:C10:1,2017-03-03T19:05:00Z,27.1690,-82.9260,3.0,8.4,18.46,10.23,'1111122,1111122,1111122' 
COMPS,ioos:station:USF.COMPS:C10:1,2017-03-03T19:35:00Z,27.1690,-82.9260,3.0,9.05,16.71,10.74,'1111122,1111122,1111122' 
COMPS,ioos:station:USF.COMPS:C10:1,2017-03-03T20:05:00Z,27.1690,-82.9260,3.0,9.13,19.57,10.8,'1111122,1111122,1111122' 
COMPS,ioos:station:USF.COMPS:C10:1,2017-03-03T20:35:00Z,27.1690,-82.9260,3.0,8.99,17.84,11.71,'1111122,1111122,1111122' 
COMPS,ioos:station:USF.COMPS:C10:1,2017-03-04T10:05:00Z,27.1690,-82.9260,3.0,12.08,52.05,14.92,'1111122,1111122,1111122' 
COMPS,ioos:station:USF.COMPS:C10:1,2017-03-04T10:35:00Z,27.1690,-82.9260,3.0,11.36,52.49,13.57,'1111122,1111122,1111122' 
COMPS,ioos:station:USF.COMPS:C10:1,2017-03-04T13:05:00Z,27.1690,-82.9260,3.0,9.89,56.69,11.79,'1111122,1111122,1111122' 
COMPS,ioos:station:USF.COMPS:C10:1,2017-03-04T13:35:00Z,27.1690,-82.9260,3.0,10.72,58.19,12.83,'1111122,1111122,1111122' 
COMPS,ioos:station:USF.COMPS:C10:1,2017-03-04T14:05:00Z,27.1690,-82.9260,3.0,10.4,55.59,11.87,'1111122,1111122,1111122' 
COMPS,ioos:station:USF.COMPS:C10:1,2017-03-04T14:35:00Z,27.1690,-82.9260,3.0,10.46,55.12,13.08,'1111122,1111122,1111122' 
COMPS,ioos:station:USF.COMPS:C10:1,2017-03-04T23:05:00Z,27.1690,-82.9260,3.0,6.69,66.96,8.69,'1111122,1111122,1111122' 
COMPS,ioos:station:USF.COMPS:C10:1,2017-03-04T23:35:00Z,27.1690,-82.9260,3.0,7.84,71.26,9.2,'1111122,1111122,1111122' 
COMPS,ioos:station:USF.COMPS:C10:1,2017-03-05T11:05:00Z,27.1690,-82.9260,3.0,9.42,74.83,11.52,'1111122,1111122,1111122' 
COMPS,ioos:station:USF.COMPS:C10:1,2017-03-05T11:35:00Z,27.1690,-82.9260,3.0,9.55,77.97,12.29,'1111122,1111122,1111122' 
COMPS,ioos:station:USF.COMPS:C10:1,2017-03-05T13:05:00Z,27.1690,-82.9260,3.0,11.32,83.59,14.53,'1111122,1111122,1111122' 
COMPS,ioos:station:USF.COMPS:C10:1,2017-03-05T13:35:00Z,27.1690,-82.9260,3.0,11.59,86.88,13.77,'1111122,1111122,1111122' 
COMPS,ioos:station:USF.COMPS:C10:1,2017-03-05T17:05:00Z,27.1690,-82.9260,3.0,9.63,99.66,11.45,'1111122,1111122,1111122' 
COMPS,ioos:station:USF.COMPS:C10:1,2017-03-05T17:35:00Z,27.1690,-82.9260,3.0,7.85,96.97,10.17,'1111122,1111122,1111122' 
COMPS,ioos:station:USF.COMPS:C10:1,2017-03-05T19:05:00Z,27.1690,-82.9260,3.0,8.97,90.83,11.15,'1111122,1111122,1111122' 
COMPS,ioos:station:USF.COMPS:C10:1,2017-03-05T19:35:00Z,27.1690,-82.9260,3.0,7.18,96.84,8.58,'1111122,1111122,1111122' 
COMPS,ioos:station:USF.COMPS:C10:1,2017-03-05T20:05:00Z,27.1690,-82.9260,3.0,6.38,100.53,8.18,'1111122,1111122,1111122' 
COMPS,ioos:station:USF.COMPS:C10:1,2017-03-05T20:35:00Z,27.1690,-82.9260,3.0,8.05,103.99,9.79,'1111122,1111122,1111122' 
COMPS,ioos:station:USF.COMPS:C10:1,2017-03-05T22:05:00Z,27.1690,-82.9260,3.0,8.57,100.8,10.16,'1111122,1111122,1111122' 
COMPS,ioos:station:USF.COMPS:C10:1,2017-03-05T22:35:00Z,27.1690,-82.9260,3.0,7.41,111.28,9.82,'1111122,1111122,1111122' 
COMPS,ioos:station:USF.COMPS:C10:1,2017-03-06T02:05:00Z,27.1690,-82.9260,3.0,9.24,114.91,11.43,'1111122,1111122,1111122' 
COMPS,ioos:station:USF.COMPS:C10:1,2017-03-06T02:35:00Z,27.1690,-82.9260,3.0,9.69,104.27,12.03,'1111122,1111122,1111122' 
COMPS,ioos:station:USF.COMPS:C10:1,2017-03-06T03:05:00Z,27.1690,-82.9260,3.0,8.77,94.79,10.84,'1111122,1111122,1111122' 
COMPS,ioos:station:USF.COMPS:C10:1,2017-03-06T03:35:00Z,27.1690,-82.9260,3.0,9.19,99.17,11.27,'1111122,1111122,1111122' 
COMPS,ioos:station:USF.COMPS:C10:1,2017-03-06T05:05:00Z,27.1690,-82.9260,3.0,8.39,95.19,10.35,'1111122,1111122,1111122' 
COMPS,ioos:station:USF.COMPS:C10:1,2017-03-06T05:35:00Z,27.1690,-82.9260,3.0,8.99,92.85,10.66,'1111122,1111122,1111122' 
COMPS,ioos:station:USF.COMPS:C10:1,2017-03-06T06:05:00Z,27.1690,-82.9260,3.0,8.52,97.58,10.48,'1111122,1111122,1111122' 
COMPS,ioos:station:USF.COMPS:C10:1,2017-03-06T06:35:00Z,27.1690,-82.9260,3.0,8.46,101.59,10.39,'1111122,1111122,1111122' 
COMPS,ioos:station:USF.COMPS:C10:1,2017-03-06T08:05:00Z,27.1690,-82.9260,3.0,9.07,105.84,10.89,'1111122,1111122,1111122' 
COMPS,ioos:station:USF.COMPS:C10:1,2017-03-06T08:35:00Z,27.1690,-82.9260,3.0,9.08,110.47,11.3,'1111122,1111122,1111122' 
COMPS,ioos:station:USF.COMPS:C10:1,2017-03-06T10:05:00Z,27.1690,-82.9260,3.0,9.41,103.43,11.97,'1111122,1111122,1111122' 
COMPS,ioos:station:USF.COMPS:C10:1,2017-03-06T10:35:00Z,27.1690,-82.9260,3.0,9.96,103.65,12.45,'1111122,1111122,1111122' 
COMPS,ioos:station:USF.COMPS:C10:1,2017-03-06T12:05:00Z,27.1690,-82.9260,3.0,8.87,100.67,10.45,'1111122,1111122,1111122' 
COMPS,ioos:station:USF.COMPS:C10:1,2017-03-06T12:35:00Z,27.1690,-82.9260,3.0,9.08,97.3,10.94,'1111122,1111122,1111122' 
COMPS,ioos:station:USF.COMPS:C10:1,2017-03-06T15:05:00Z,27.1690,-82.9260,3.0,8.15,112.96,10.05,'1111122,1111122,1111122' 
COMPS,ioos:station:USF.COMPS:C10:1,2017-03-06T15:35:00Z,27.1690,-82.9260,3.0,7.73,112.34,9.66,'1111122,1111122,1111122' 
COMPS,ioos:station:USF.COMPS:C10:1,2017-03-06T16:05:00Z,27.1690,-82.9260,3.0,8.36,112.64,10.07,'1111122,1111122,1111122' 
COMPS,ioos:station:USF.COMPS:C10:1,2017-03-06T16:35:00Z,27.1690,-82.9260,3.0,7.18,117.24,8.79,'1111122,1111122,1111122' 
COMPS,ioos:station:USF.COMPS:C10:1,2017-03-06T18:05:00Z,27.1690,-82.9260,3.0,6.18,134.61,8.05,'1111122,1111122,1111122' 
COMPS,ioos:station:USF.COMPS:C10:1,2017-03-06T18:35:00Z,27.1690,-82.9260,3.0,5.14,136.34,6.56,'1111122,1111122,1111122' 
COMPS,ioos:station:USF.COMPS:C10:1,2017-03-06T19:05:00Z,27.1690,-82.9260,3.0,3.5,141.36,4.97,'1111122,1111122,1111122' 
COMPS,ioos:station:USF.COMPS:C10:1,2017-03-06T19:35:00Z,27.1690,-82.9260,3.0,2.37,152.85,3.27,'1111122,1111122,1111122' 
COMPS,ioos:station:USF.COMPS:C10:1,2017-03-06T20:05:00Z,27.1690,-82.9260,3.0,2.36,150.71,3.12,'1111122,1111122,1111122' 
COMPS,ioos:station:USF.COMPS:C10:1,2017-03-06T20:35:00Z,27.1690,-82.9260,3.0,1.7,136.74,2.43,'1111122,1111122,1111122' 
COMPS,ioos:station:USF.COMPS:C10:1,2017-03-06T22:05:00Z,27.1690,-82.9260,3.0,2.45,96.32,2.96,'1111122,1111122,1111122' 
COMPS,ioos:station:USF.COMPS:C10:1,2017-03-06T22:35:00Z,27.1690,-82.9260,3.0,5.7,107.69,7.2,'1111122,1111122,1111122' 
COMPS,ioos:station:USF.COMPS:C10:1,2017-03-06T23:05:00Z,27.1690,-82.9260,3.0,6.48,106.17,7.94,'1111122,1111122,1111122' 
COMPS,ioos:station:USF.COMPS:C10:1,2017-03-06T23:35:00Z,27.1690,-82.9260,3.0,6.97,104.05,8.51,'1111122,1111122,1111122' 
COMPS,ioos:station:USF.COMPS:C10:1,2017-03-07T01:05:00Z,27.1690,-82.9260,3.0,7.34,104.44,8.64,'1111122,1111122,1111122' 
COMPS,ioos:station:USF.COMPS:C10:1,2017-03-07T01:35:00Z,27.1690,-82.9260,3.0,9.95,97.87,11.8,'1111122,1111122,1111122' 
COMPS,ioos:station:USF.COMPS:C10:1,2017-03-07T02:05:00Z,27.1690,-82.9260,3.0,9.61,97.78,11.96,'1111122,1111122,1111122' 
COMPS,ioos:station:USF.COMPS:C10:1,2017-03-07T02:35:00Z,27.1690,-82.9260,3.0,9.49,104.4,11.34,'1111122,1111122,1111122' 
COMPS,ioos:station:USF.COMPS:C10:1,2017-03-07T03:05:00Z,27.1690,-82.9260,3.0,9.49,110.8,11.98,'1111122,1111122,1111122' 
COMPS,ioos:station:USF.COMPS:C10:1,2017-03-07T03:35:00Z,27.1690,-82.9260,3.0,8.87,113.51,11.36,'1111122,1111122,1111122' 
COMPS,ioos:station:USF.COMPS:C10:1,2017-03-07T05:05:00Z,27.1690,-82.9260,3.0,8.31,112.85,10.37,'1111122,1111122,1111122' 
COMPS,ioos:station:USF.COMPS:C10:1,2017-03-07T05:35:00Z,27.1690,-82.9260,3.0,8.47,113.93,10.17,'1111122,1111122,1111122' 
COMPS,ioos:station:USF.COMPS:C10:1,2017-03-07T06:05:00Z,27.1690,-82.9260,3.0,8.19,113.52,9.71,'1111122,1111122,1111122' 
COMPS,ioos:station:USF.COMPS:C10:1,2017-03-07T06:35:00Z,27.1690,-82.9260,3.0,8.69,115.97,10.65,'1111122,1111122,1111122' 
COMPS,ioos:station:USF.COMPS:C10:1,2017-03-07T07:05:00Z,27.1690,-82.9260,3.0,9.08,117.36,11.24,'1111122,1111122,1111122' 
COMPS,ioos:station:USF.COMPS:C10:1,2017-03-07T07:35:00Z,27.1690,-82.9260,3.0,8.95,114.31,11.43,'1111122,1111122,1111122' 
COMPS,ioos:station:USF.COMPS:C10:1,2017-03-07T08:05:00Z,27.1690,-82.9260,3.0,9.37,114.89,11.83,'1111122,1111122,1111122' 
COMPS,ioos:station:USF.COMPS:C10:1,2017-03-07T08:35:00Z,27.1690,-82.9260,3.0,9.65,116.11,11.81,'1111122,1111122,1111122' 
COMPS,ioos:station:USF.COMPS:C10:1,2017-03-07T10:05:00Z,27.1690,-82.9260,3.0,10.48,117.05,12.95,'1111122,1111122,1111122' 
COMPS,ioos:station:USF.COMPS:C10:1,2017-03-07T10:35:00Z,27.1690,-82.9260,3.0,9.77,114.69,12.56,'1111122,1111122,1111122' 
COMPS,ioos:station:USF.COMPS:C10:1,2017-03-07T13:05:00Z,27.1690,-82.9260,3.0,9.91,112.7,12.41,'1111122,1111122,1111122' 
COMPS,ioos:station:USF.COMPS:C10:1,2017-03-07T13:35:00Z,27.1690,-82.9260,3.0,9.68,114.46,12.16,'1111122,1111122,1111122' 
COMPS,ioos:station:USF.COMPS:C10:1,2017-03-07T14:05:00Z,27.1690,-82.9260,3.0,9.3,118.99,11.83,'1111122,1111122,1111122' 
COMPS,ioos:station:USF.COMPS:C10:1,2017-03-07T14:35:00Z,27.1690,-82.9260,3.0,9.56,119.43,11.7,'1111122,1111122,1111122' 
COMPS,ioos:station:USF.COMPS:C10:1,2017-03-07T15:05:00Z,27.1690,-82.9260,3.0,9.0,121.54,10.83,'1111122,1111122,1111122' 
COMPS,ioos:station:USF.COMPS:C10:1,2017-03-07T15:35:00Z,27.1690,-82.9260,3.0,7.98,124.76,9.75,'1111122,1111122,1111122' 
COMPS,ioos:station:USF.COMPS:C10:1,2017-03-07T17:05:00Z,27.1690,-82.9260,3.0,5.56,138.38,6.76,'1111122,1111122,1111122' 
COMPS,ioos:station:USF.COMPS:C10:1,2017-03-07T17:35:00Z,27.1690,-82.9260,3.0,4.39,133.02,5.69,'1111122,1111122,1111122' 
COMPS,ioos:station:USF.COMPS:C10:1,2017-03-07T18:05:00Z,27.1690,-82.9260,3.0,4.55,135.25,5.51,'1111122,1111122,1111122' 
COMPS,ioos:station:USF.COMPS:C10:1,2017-03-07T18:35:00Z,27.1690,-82.9260,3.0,3.87,141.83,4.77,'1111122,1111122,1111122' 
COMPS,ioos:station:USF.COMPS:C10:1,2017-03-07T19:05:00Z,27.1690,-82.9260,3.0,3.06,160.75,3.94,'1111122,1111122,1111122' 
COMPS,ioos:station:USF.COMPS:C10:1,2017-03-07T19:35:00Z,27.1690,-82.9260,3.0,2.32,170.3,2.84,'1111122,1111122,1111122' 
COMPS,ioos:station:USF.COMPS:C10:1,2017-03-07T20:05:00Z,27.1690,-82.9260,3.0,2.86,185.15,3.52,'1111122,1111122,1111122' 
COMPS,ioos:station:USF.COMPS:C10:1,2017-03-07T20:35:00Z,27.1690,-82.9260,3.0,3.09,183.45,3.9,'1111122,1111122,1111122' 
COMPS,ioos:station:USF.COMPS:C10:1,2017-03-07T21:05:00Z,27.1690,-82.9260,3.0,3.29,190.59,3.92,'1111122,1111122,1111122' 
COMPS,ioos:station:USF.COMPS:C10:1,2017-03-07T21:35:00Z,27.1690,-82.9260,3.0,2.5,202.17,3.19,'1111122,1111122,1111122' 
COMPS,ioos:station:USF.COMPS:C10:1,2017-03-07T22:05:00Z,27.1690,-82.9260,3.0,2.61,203.12,3.31,'1111122,1111122,1111122' 
COMPS,ioos:station:USF.COMPS:C10:1,2017-03-07T22:35:00Z,27.1690,-82.9260,3.0,1.84,200.54,2.52,'1111122,1111122,1111122' 
COMPS,ioos:station:USF.COMPS:C10:1,2017-03-07T23:05:00Z,27.1690,-82.9260,3.0,1.79,200.17,2.25,'1111122,1111122,1111122' 
COMPS,ioos:station:USF.COMPS:C10:1,2017-03-07T23:35:00Z,27.1690,-82.9260,3.0,2.61,189.08,3.15,'1111122,1111122,1111122' 
COMPS,ioos:station:USF.COMPS:C10:1,2017-03-08T00:05:00Z,27.1690,-82.9260,3.0,2.51,160.65,3.15,'1111122,1111122,1111122' 